Location: Dürabuch
(48.2640°N, 11.2185°E)
Time: 10:12:02
(UTC+00:00)

Cosmos 2221 Rocket - Pass Details

Date: 23 May 2024
Orbit: 617 x 646 km, 82.5° (Epoch: 15 June)

Event Time Altitude Azimuth Distance (km) Brightness Sun altitude
Exits shadow 02:28:25 - 190° (S) 2,469 6.2 -8.3°
Reaches altitude 10° 02:29:29 10° 190° (S) 2,040 5.7 -8.2°
Maximum altitude 02:34:02 84° 280° (W) 655 3.7 -7.6°
Drops below altitude 10° 02:38:35 10° 8° (N) 2,048 7.1 -7.1°
Sets 02:40:51 0° 10° (N) 2,959 8.0 -6.8°
